Weather in Pretoria

South Africa     25˚44′23″S   28˚13′13″E
temp.,
°C
wind,
m/s
gust,
m/s
humid.,
%
clouds,
%
prec.,
mm/h
press.,
hPa
HPBL,
m
3 december, thu
thu323:00+19˚ne611660 0.3 1015677
02:00+16˚nne711766 0.5 1016714
05:00+16˚ne7107588 0.0 1017644
08:00+16˚nne577494 0.0 1018620
11:00+21˚n455387 0.0 10171119
14:00+23˚nnw464887 0.0 10131360
17:00+26˚wnw563416 0.0 10112287
20:00+24˚n00388 0.0 101377
4 december, fri
fri423:00+22˚n354425 0.1 1014252
02:00+19˚nne476313 0.1 1013439
05:00+17˚nne24720 0.0 1015250
08:00+21˚nne34540 0.0 1016591
11:00+27˚n33350 0.0 10131347
14:00+30˚nnw34190 0.0 10103192
17:00+28˚e442385 0.0 10091634
20:00+26˚ese342875 0.0 1013820
5 december, sat
sat523:00+20˚e245963 3.3 1017782
02:00+17˚ese248881 28.4 1016382
05:00+17˚ene5789100 34.3 1016495
08:00+16˚nne71084100 37.2 1018720
11:00+21˚nne7960100 0.5 10171108
14:00+25˚n664372 0.5 10131692
17:00+25˚n564323 0.1 10111765
20:00+21˚n585461 1.1 1013683
6 december, sun
sun623:00+19˚nne696281 0.2 10161023
02:00+18˚nne586777 0.2 1015801
05:00+17˚n497264 0.0 1015718
08:00+19˚nne586654 0.0 1016905
11:00+21˚n455994 0.0 10141075
14:00+26˚nnw454487 0.0 10111489
17:00+26˚wnw444122 0.0 10081708
20:00+24˚wnw234917 0.0 1010895
7 december, mon
mon723:00+23˚wsw245367 0.2 1014301
02:00+20˚se476267 0.9 1013352
05:00+19˚e236284 0.0 1013136
08:00+22˚e355563 0.0 1014569
11:00+28˚nne43360 0.0 10131659
14:00+30˚n433010 0.0 10102352
17:00+24˚sse7953100 1.4 1010254
20:00+21˚ne466491 7.0 1014440